Regional Weather Roundup
Issued by NWS Upton, NY

Current Version | Previous Version | Text Only | Print | Product List | Glossary On
Versions: 1 2 3 4 5 6 7 8 9 10 11 12 13 14 15 16 17 18 19 20 21 22 23 24 25 26 27 28 29 30 31 32 33 34 35 36 37 38 39 40 41 42 43 44 45 46 47 48 49 50
000
ASUS41 KOKX 211705
RWROKX

REGIONAL WEATHER ROUNDUP
NATIONAL WEATHER SERVICE NEW YORK NY
1200 PM EST SUN DEC 21 2014

NOTE: "FAIR" INDICATES FEW OR NO CLOUDS BELOW 12,000 FEET WITH NO
SIGNIFICANT WEATHER AND/OR OBSTRUCTIONS TO VISIBILITY.

NYZ071-072-176-178-NJZ106-104-211800-
NEW YORK CITY METRO AREA


CITY           SKY/WX    TMP DP  RH WIND       PRES   REMARKS
CENTRAL PARK   CLOUDY    33  25  72 VRB5      30.32F WCI  29
LAGUARDIA APRT CLOUDY    33  27  78 N7        30.30F WCI  27
KENNEDY INTL   CLOUDY    36  27  69 N9        30.31F WCI  29
NEWARK/LIBERTY CLOUDY    34  27  75 NW8       30.31F WCI  27
BRNX BOT. GARD   N/A    N/A N/A N/A N8        30.31S
TETERBORO      CLOUDY    34  26  72 NW6       30.30F WCI  29
$$

NYZ177-179-078>081-211800-
LONG ISLAND NEW YORK

CITY           SKY/WX    TMP DP  RH WIND       PRES   REMARKS
FARMINGDALE    CLOUDY    35  28  75 N8        30.29F WCI  29
ISLIP          CLOUDY    35  30  82 NW8       30.26F WCI  29
SHIRLEY        CLOUDY    36  32  85 N6        30.28S WCI  31
WESTHAMPTON    CLOUDY    36  33  89 NW7       30.27F FOG     WCI  30
MONTAUK POINT    N/A     40  37  89 NE12G20   30.23F WCI  33
$$

NYZ052-065-067-211800-
HUDSON VALLEY

CITY           SKY/WX    TMP DP  RH WIND       PRES   REMARKS
WHITE PLAINS   CLOUDY    32  27  81 N8        30.26F WCI  25
NEWBURGH       CLOUDY    30  28  93 N6        30.31F WCI  24
MONTGOMERY     CLOUDY    31  26  82 NE5       30.29F WCI  26
POUGHKEEPSIE   LGT SNOW  32  27  81 N6        30.31F WCI  26
ALBANY         FLURRIES  29  23  78 N6        30.34F WCI  23
$$

NJZ001-105-106-008-010-013-015-019>022-104-211800-
NEW JERSEY

CITY           SKY/WX    TMP DP  RH WIND       PRES   REMARKS
NEWARK/LIBERTY CLOUDY    34  27  75 NW8       30.31F WCI  27
TETERBORO      CLOUDY    34  26  72 NW6       30.30F WCI  29
CALDWELL       CLOUDY    32  25  75 NW6       30.31F WCI  26
MORRISTOWN     NOT AVBL
SOMERVILLE     CLOUDY    35  25  66 N7        30.30F WCI  29
SUSSEX         CLOUDY    31  27  85 CALM      30.30F
ANDOVER          N/A     32  25  75 N6        30.30F WCI  26
TRENTON        CLOUDY    35  22  58 N7        30.30F WCI  29
MILLVILLE      SUNNY     38  23  55 NW9       30.31F WCI  31
ATLANTIC CITY  SUNNY     39  22  50 N8        30.30F WCI  33
WRIGHTSTOWN    PTSUNNY   38  24  57 NW12      30.28F WCI  30
TOMS RIVER     PTSUNNY   36  25  64 N12       30.30F WCI  27
BELMAR         CLOUDY    36  21  55 NW9       30.29F WCI  29
$$

PAZ047>061-062-071-211800-
EASTERN PENNSYLVANIA

CITY           SKY/WX    TMP DP  RH WIND       PRES   REMARKS
PHILADELPHIA   MOSUNNY   39  21  48 VRB7      30.33F WCI  34
ALLENTOWN      CLOUDY    34  20  56 NW6       30.32F WCI  29
SCRANTON       CLOUDY    31  19  61 N6        30.28F WCI  25
$$

CTZ002-004>006-009-010-012-RIZ004-006-007-MAZ004-011-015-211800-
SOUTHERN NEW ENGLAND
 IN CT

CITY           SKY/WX    TMP DP  RH WIND       PRES   REMARKS
BRADLEY INTL   LGT SNOW  34  28  80 N7        30.29F WCI  28
HARTFORD       LGT SNOW  33  30  88 N7        30.30F FOG     WCI  27
DANBURY        LGT SNOW  32  27  81 NW3       30.28F
WTRBRY/OXFORD  CLOUDY    32  25  74 N7        30.27F WCI  26
BRIDGEPORT     CLOUDY    35  32  88 N9        30.29S FOG     WCI  28
MERIDEN        LGT SNOW  34  30  85 N7        30.29F FOG     WCI  28
NEW HAVEN      LGT SNOW  37  31  78 N8        30.28F WCI  31
CHESTER        LGT SNOW  34  32  93 N6        30.26F WCI  29
GROTON         CLOUDY    38  34  85 N9        30.25F WCI  31
WILLIMANTIC    LGT SNOW  34  30  85 N6        30.28F FOG     WCI  29

 IN RI

CITY           SKY/WX    TMP DP  RH WIND       PRES   REMARKS
PROVIDENCE     LGT SNOW  33  31  92 N10       30.29F VSB 1   WCI  25
BLOCK ISLAND   CLOUDY    39  36  87 NE13G22   30.23F WCI  32
WESTERLY       CLOUDY    38  33  82 NE9       30.25F WCI  31

 IN MA

CITY           SKY/WX    TMP DP  RH WIND       PRES   REMARKS
BOSTON         FLURRIES  32  25  75 N7        30.31F WCI  26
WORCESTER      LGT SNOW  28  26  92 NE7       30.25F FOG     WCI  21
WESTFIELD      LGT SNOW  32  29  88 N7        30.30F FOG     WCI  26
PROVINCETOWN   CLOUDY    43  36  75 NE10      30.27F
NANTUCKET      CLOUDY    44  35  70 NE8       30.25F
$$

ANZ330-335-338-340-345-350-353-355-211800-
COASTAL MARINE OBSERVATIONS


STATION/POSITION TIME  SKY/WX   TEMP    WIND        PRES    VSBY  WAVE
                                AIR SEA DIR/SP/G                  HT/PER
                 (UTC)          (F)     (DEG/KT/KT) (MB)    (MI)  (FT/S)
NY HARB ENTRANCE 1700            35 45  320/ 10/ 14 1026.1          1/11
4S FIRE IS       1700               45                N/A           1/10
20S FIRE ISLAND  1600            37 49              1026.4          2/11
23SW MTP         1700                                 N/A           3/ 5
HUDSON CANYON    1700            40 54  310/ 12/ 14 1024.5          2/ 5
EXECUTION ROCKS  1700            34 41  350/  6/ 10   N/A
WESTERN LI SOUND 1700            34     350/  8/ 10   N/A           0
CENTRAL LI SOUND 1700            35 44  350/  8/ 12   N/A           1
EASTERN LI SOUND NOT AVBL
ROBBINS REEF     1700            33     300/  5/  9 1025.0
$$


>>>>>>>>>>>>>>>>>>>>>>>>>>>> KEY <<<<<<<<<<<<<<<<<<<<<<<<<<<
>                                                          <
>     SKY/WX - SKY CONDITION/PRESENT WEATHER               <
>     TMP    - TEMPERATURE IN FAHRENHEIT                   <
>     DP     - DEWPOINT IN FAHRENHEIT                      <
>     RH     - RELATIVE HUMIDITY IN PERCENT                <
>     WIND   - DIRECTION AND SPEED IN MPH                  <
>     PRES   - MEAN SEA LEVEL PRESSURE IN INCHES OF HG     <
>     WCI    - WIND CHILL INDEX                            <
>     VSB    - VISIBILITY IN MILES                         <
>     HX     - HEAT INDEX                                  <
>     TC     - TEMPERATURE IN CELSIUS                      <
>     VRB    - VARIABLE WIND DIRECTION                     <
>                                                          <
>>>>>>>>>>>>>>>>>>>>>>>>>>>> KEY <<<<<<<<<<<<<<<<<<<<<<<<<<<




USA.gov is the U.S. government's official web portal to all federal, state and local government web resources and services.